Content
SEND FEEDBACK

Daily
Averages
Monthly
Summary
United States of America

LOVELACEVILLE, KENTUCKY


Home > North America > United States > Kentucky
Elevation: 372 feet     Latitude: 36 58N     Longitude: 088 49W

WEATHER
 
SELECT A DAY
Number of Records: 211,332;   Date Range: 1/1/95 - 9/30/14
 
SHARE

PRINT THIS DATA

[ ← Previous Day ]
WEATHER ALMANAC - FEBRUARY 13, 2013
[ Next Day → ]
[ °C ]   °F
Weather ElementAverageHighLow
Temperature40.1 °F46.4 °F (1:42 pm)35.6 °F (7:51 am)
Dewpoint35.1 °F37.4 °F (1:42 pm)33.8 °F (5:14 am)
Humidity83 %93 % (5:29 am)68 % (2:53 pm)
Barometer29.90 in29.96 in (11:53 pm)29.83 in (5:14 am)
Wind Speed8.3 mph11.5 mph (3:53 am)
Weather ElementAverage
Visibility8.1 mi
Wind DirectionWSW (247.3 °)

Weather ElementTotal
Precipitation0.24 in
Heating Degree Days24 (Base 65)
Averaged from 33 records on February 13, 2013
WEATHER CONDITIONS BREAKOUT
WIND DIRECTION BREAKOUT
WEATHER BY HOUR - FEBRUARY 13, 2013
[ °C ]   °F
Local TimeTemperatureDewpointHumidityBarometerVisibilityWind DirectionWind SpeedGust SpeedPrecipitationEventsConditions
1:53 AM39.9 °F36.0 °F86 %29.85 in6.0 miNorth (10°)6.9 mph0.04 inRainLight Rain
2:09 AM39.2 °F35.6 °F87 %29.85 in7.0 miCalm0.00 inRainLight Rain
2:53 AM39.9 °F35.1 °F83 %29.86 in7.0 miNNW (340°)10.4 mph0.03 inRainLight Rain
3:53 AM39.0 °F35.1 °F86 %29.85 in5.0 miNorth (360°)11.5 mph0.05 inRainLight Rain
4:53 AM37.9 °F35.1 °F89 %29.84 in6.0 miNorth (360°)11.5 mph0.05 inRainLight Rain
5:14 AM37.4 °F33.8 °F87 %29.83 in7.0 miNorth (360°)11.5 mph0.00 inRainLight Rain
5:29 AM37.4 °F35.6 °F93 %29.84 in7.0 miNorth (360°)11.5 mph0.01 inRainLight Rain
5:53 AM37.0 °F35.1 °F93 %29.84 in7.0 miNorth (350°)10.4 mph0.01 inOvercast
6:08 AM37.4 °F33.8 °F87 %29.85 in6.0 miNorth (350°)10.4 mph0.00 inRainLight Rain
6:53 AM36.0 °F34.0 °F93 %29.87 in6.0 miNorth (350°)10.4 mph0.00 inOvercast
7:51 AM35.6 °F33.8 °F93 %29.87 in5.0 miNorth (10°)8.1 mph0.02 inOvercast
7:53 AM36.0 °F34.0 °F93 %29.88 in5.0 miNorth (10°)6.9 mph0.02 inOvercast
8:53 AM37.0 °F35.1 °F93 %29.91 in5.0 miNNW (340°)8.1 mph0.00 inRainLight Rain
9:53 AM37.0 °F35.1 °F93 %29.94 in6.0 miNNW (330°)6.9 mph0.01 inRainLight Rain
10:53 AM39.0 °F36.0 °F89 %29.95 in6.0 miNW (320°)6.9 mph0.00 inOvercast
11:14 AM39.2 °F35.6 °F87 %29.95 in7.0 miNW (320°)4.6 mphOvercast
11:38 AM41.0 °F35.6 °F81 %29.93 in8.0 miWest (260°)4.6 mphOvercast
11:53 AM42.1 °F36.0 °F79 %29.93 in10.0 miWSW (250°)3.5 mphOvercast
12:53 PM43.0 °F35.1 °F74 %29.92 in10.0 miWest (270°)5.8 mphOvercast
1:10 PM44.6 °F35.6 °F71 %29.91 in10.0 miWSW (240°)8.1 mphOvercast
1:42 PM46.4 °F37.4 °F71 %29.90 in10.0 miWSW (240°)10.4 mphMostly Cloudy
1:53 PM45.0 °F36.0 °F71 %29.91 in10.0 miWSW (250°)5.8 mphMostly Cloudy
2:37 PM44.6 °F35.6 °F71 %29.90 in10.0 miWest (270°)11.5 mphScattered Clouds
2:53 PM46.0 °F36.0 °F68 %29.90 in10.0 miWest (270°)9.2 mphScattered Clouds
3:53 PM45.0 °F35.1 °F68 %29.91 in10.0 miWSW (250°)10.4 mphPartly Cloudy
4:53 PM44.1 °F34.0 °F68 %29.91 in10.0 miSW (230°)11.5 mphPartly Cloudy
5:53 PM41.0 °F34.0 °F76 %29.91 in10.0 miSSW (210°)5.8 mphClear
6:53 PM39.9 °F34.0 °F79 %29.93 in10.0 miSSW (200°)4.6 mphClear
7:53 PM39.9 °F35.1 °F83 %29.93 in10.0 miSSW (200°)8.1 mphClear
8:53 PM39.9 °F35.1 °F83 %29.94 in10.0 miSSW (210°)10.4 mphClear
9:53 PM39.0 °F36.0 °F89 %29.94 in10.0 miSSW (210°)10.4 mphClear
10:53 PM39.0 °F35.1 °F86 %29.95 in10.0 miSW (220°)10.4 mphClear
11:53 PM37.9 °F35.1 °F89 %29.96 in10.0 miSSW (210°)8.1 mphClear
Hourly data recorded from KPAH, located miles away from Lovelaceville, Kentucky







STORIES FROM OUR PARTNERS